Location: Praha
(50.0830°N, 14.4670°E)
Time: 21:56:37
(UTC+01:00)

ISS - Pass Details

Date: 07 November 2019
Orbit: 412 x 421 km, 51.6° (Epoch: 15 November)

Event Time Altitude Azimuth Distance (km) Brightness Sun altitude
Exits shadow 05:46:18 21° 277° (W) 1,001 -2.5 -12.3°
Maximum altitude 05:48:19 57° 205° (SSW) 500 -3.5 -11.9°
Drops below altitude 10° 05:51:38 10° 125° (SE) 1,499 0.2 -11.4°
Sets 05:53:44 0° 122° (ESE) 2,359 1.6 -11.1°
